Regional Weather Roundup
Issued by NWS

Home | Current Version | Previous Version | Text Only | Print | Product List | Glossary Off
Versions: 1 2 3 4 5 6 7 8 9 10 11 12 13 14 15 16 17 18 19 20 21 22 23 24 25 26 27 28 29 30 31 32 33 34 35 36 37 38 39 40 41 42 43 44 45 46 47 48 49 50

000
ASUS43 KLMK 280902
RWRKY
KENTUCKY REGIONAL WEATHER ROUNDUP
NATIONAL WEATHER SERVICE LOUISVILLE KY
500 AM EDT SUN MAY 28 2017

NOTE "FAIR" INDICATES FEW OR NO CLOUDS BELOW 12,000 FEET
WITH NO SIGNIFICANT WEATHER AND/OR OBSTRUCTIONS TO VISIBILITY.

KYZ001>023-026-027-061>063-070>075-281000-
WESTERN AND SOUTH CENTRAL KENTUCKY

CITY           SKY/WX    TMP DP  RH WIND       PRES   REMARKS
PADUCAH        CLOUDY    65  61  87 NW9       29.80S
HENDERSON      CLOUDY    64  62  93 SW5       29.77F
OWENSBORO      CLOUDY    65  62  90 SE6       29.80F
HOPKINSVILLE   CLOUDY    64  63  99 S14G25    29.78F
BOWLING GREEN  LGT RAIN  65  63  93 S17       29.79F
GLASGOW        NOT AVBL
$$

KYZ024-025-028>034-038-045-046-053-281000-
NORTH CENTRAL KENTUCKY

CITY           SKY/WX    TMP DP  RH WIND       PRES   REMARKS
LOUISVILLE/SDF CLOUDY    66  62  87 S7        29.79R
LOUISVILLE/LOU CLOUDY    65  63  93 S5        29.81R
FORT KNOX      CLOUDY    63  62  98 S5        29.80F
$$

KYZ035>037-039>044-047>052-055>060-089>105-281000-
NORTHEAST KENTUCKY

CITY           SKY/WX    TMP DP  RH WIND       PRES   REMARKS
LEXINGTON      MOCLDY    63  59  87 S10       29.84S
COVINGTON      CLOUDY    63  61  93 S8        29.79R
FRANKFORT      CLOUDY    64  59  83 SW9       29.81S
$$

KYZ054-064>069-076>088-106>120-281000-
SOUTHEAST KENTUCKY

CITY           SKY/WX    TMP DP  RH WIND       PRES   REMARKS
JACKSON        CLOUDY    62  61  96 VRB3      29.86F
LONDON         CLOUDY    62  59  90 S7        29.88F
SOMERSET       MOCLDY    59  59 100 S3        29.87F
MIDDLESBORO    PTCLDY    62  62  97 CALM      29.90S
MONTICELLO     CLOUDY    63  61  93 VRB6      29.85F
$$




USA.gov is the U.S. government's official web portal to all federal, state and local government web resources and services.